Time,TemperatureF,DewpointF,PressureIn,WindDirection,WindDirectionDegrees,WindSpeedMPH,WindSpeedGustMPH,Humidity,HourlyPrecipIn,Conditions,Clouds,dailyrainin,SoftwareType,DateUTC
2013-09-20 00:14:00,65.0,62.0,-100.00,NNE,23,1.0,4.0,90,0.00,,,0.01,,2013-09-20 04:14:00,
2013-09-20 00:24:00,65.0,62.0,-100.00,WSW,256,1.0,2.0,91,0.00,,,0.01,,2013-09-20 04:24:00,
2013-09-20 00:34:00,65.0,62.0,-100.00,WSW,256,1.0,2.0,91,0.00,,,0.01,,2013-09-20 04:34:00,
2013-09-20 00:54:00,65.0,63.0,-100.00,SW,220,1.0,3.0,91,0.00,,,0.01,,2013-09-20 04:54:00,
2013-09-20 01:13:00,66.0,62.0,-100.00,North,360,1.0,4.0,89,0.00,,,0.01,,2013-09-20 05:13:00,
2013-09-20 01:23:00,66.0,62.0,-100.00,NE,42,3.0,4.0,88,0.00,,,0.01,,2013-09-20 05:23:00,
2013-09-20 01:34:00,66.0,62.0,-100.00,NE,42,3.0,4.0,88,0.00,,,0.01,,2013-09-20 05:34:00,
2013-09-20 01:53:00,65.0,62.0,-100.00,NE,51,2.0,4.0,90,0.00,,,0.01,,2013-09-20 05:53:00,
2013-09-20 02:12:00,65.0,62.0,-100.00,SSW,209,1.0,2.0,91,0.00,,,0.01,,2013-09-20 06:12:00,
2013-09-20 02:22:00,65.0,62.0,-100.00,WSW,258,0.0,2.0,91,0.00,,,0.01,,2013-09-20 06:22:00,
2013-09-20 02:33:00,65.0,62.0,-100.00,WSW,258,0.0,2.0,91,0.00,,,0.01,,2013-09-20 06:33:00,
2013-09-20 02:52:00,65.0,63.0,-100.00,South,181,1.0,3.0,92,0.00,,,0.01,,2013-09-20 06:52:00,
2013-09-20 03:12:00,65.0,63.0,-100.00,North,360,1.0,3.0,91,0.00,,,0.01,,2013-09-20 07:12:00,
2013-09-20 03:23:00,65.0,62.0,-100.00,NE,49,2.0,4.0,90,0.00,,,0.01,,2013-09-20 07:23:00,
2013-09-20 03:32:00,65.0,62.0,-100.00,NE,49,2.0,4.0,90,0.00,,,0.01,,2013-09-20 07:32:00,
2013-09-20 03:53:00,65.0,62.0,-100.00,NE,44,2.0,4.0,89,0.00,,,0.01,,2013-09-20 07:53:00,
2013-09-20 04:12:00,65.0,62.0,-100.00,SW,230,1.0,4.0,91,0.00,,,0.01,,2013-09-20 08:12:00,
2013-09-20 04:22:00,65.0,62.0,-100.00,NE,45,1.0,3.0,91,0.00,,,0.01,,2013-09-20 08:22:00,
2013-09-20 04:32:00,65.0,62.0,-100.00,NE,45,1.0,3.0,91,0.00,,,0.01,,2013-09-20 08:32:00,
2013-09-20 04:52:00,65.0,62.0,-100.00,ENE,69,1.0,3.0,90,0.00,,,0.01,,2013-09-20 08:52:00,
2013-09-20 05:12:00,65.0,62.0,-100.00,NE,56,2.0,3.0,90,0.00,,,0.00,,2013-09-20 09:12:00,
2013-09-20 05:22:00,64.0,62.0,-100.00,NNW,329,1.0,2.0,91,0.00,,,0.00,,2013-09-20 09:22:00,
2013-09-20 05:33:00,64.0,62.0,-100.00,NNW,329,1.0,2.0,91,0.00,,,0.00,,2013-09-20 09:33:00,
2013-09-20 05:53:00,64.0,62.0,-100.00,NW,325,1.0,5.0,92,0.00,,,0.00,,2013-09-20 09:53:00,
2013-09-20 06:04:00,64.0,62.0,-100.00,NW,325,1.0,5.0,92,0.00,,,0.00,,2013-09-20 10:04:00,
2013-09-20 06:23:00,64.0,62.0,-100.00,WSW,241,0.0,2.0,92,0.00,,,0.00,,2013-09-20 10:23:00,
2013-09-20 06:32:00,64.0,62.0,-100.00,WSW,241,0.0,2.0,92,0.00,,,0.00,,2013-09-20 10:32:00,
2013-09-20 06:53:00,64.0,62.0,-100.00,SSW,213,1.0,3.0,92,0.00,,,0.00,,2013-09-20 10:53:00,
2013-09-20 07:12:00,64.0,62.0,-100.00,NNE,27,1.0,3.0,93,0.00,,,0.00,,2013-09-20 11:12:00,
2013-09-20 07:23:00,64.0,62.0,-100.00,North,352,1.0,4.0,92,0.00,,,0.00,,2013-09-20 11:23:00,
2013-09-20 07:33:00,64.0,62.0,-100.00,North,352,1.0,4.0,92,0.00,,,0.00,,2013-09-20 11:33:00,
2013-09-20 07:52:00,64.0,62.0,-100.00,ENE,58,2.0,4.0,92,0.00,,,0.00,,2013-09-20 11:52:00,
2013-09-20 08:12:00,64.0,61.0,-100.00,ENE,61,3.0,5.0,92,0.00,,,0.00,,2013-09-20 12:12:00,
2013-09-20 08:22:00,65.0,62.0,-100.00,NNE,30,3.0,6.0,91,0.00,,,0.00,,2013-09-20 12:22:00,
2013-09-20 08:32:00,65.0,62.0,-100.00,NNE,30,3.0,6.0,91,0.00,,,0.00,,2013-09-20 12:32:00,
2013-09-20 08:52:00,65.0,62.0,-100.00,NNE,32,1.0,3.0,89,0.00,,,0.00,,2013-09-20 12:52:00,
2013-09-20 09:12:00,65.0,62.0,-100.00,SSW,203,2.0,5.0,92,0.51,,,0.05,,2013-09-20 13:12:00,
2013-09-20 09:22:00,64.0,63.0,-100.00,North,0,2.0,4.0,94,0.21,,,0.18,,2013-09-20 13:22:00,
2013-09-20 09:32:00,64.0,63.0,-100.00,North,0,2.0,4.0,94,0.21,,,0.18,,2013-09-20 13:32:00,
2013-09-20 09:53:00,64.0,63.0,-100.00,NE,41,4.0,8.0,95,0.00,,,0.19,,2013-09-20 13:53:00,
2013-09-20 10:11:00,65.0,63.0,-100.00,NE,37,3.0,5.0,94,0.00,,,0.19,,2013-09-20 14:11:00,
2013-09-20 10:22:00,64.0,62.0,-100.00,NE,40,3.0,6.0,94,0.00,,,0.19,,2013-09-20 14:22:00,
2013-09-20 10:32:00,64.0,62.0,-100.00,NE,40,3.0,6.0,94,0.00,,,0.19,,2013-09-20 14:32:00,
2013-09-20 10:52:00,64.0,62.0,-100.00,NE,40,3.0,6.0,94,0.00,,,0.19,,2013-09-20 14:52:00,
2013-09-20 11:12:00,65.0,63.0,-100.00,NE,47,2.0,5.0,94,0.01,,,0.19,,2013-09-20 15:12:00,
2013-09-20 11:22:00,65.0,63.0,-100.00,NE,52,4.0,7.0,93,0.00,,,0.19,,2013-09-20 15:22:00,
2013-09-20 11:33:00,65.0,63.0,-100.00,NE,52,4.0,7.0,93,0.00,,,0.19,,2013-09-20 15:33:00,
2013-09-20 11:54:00,66.0,64.0,-100.00,NNE,16,2.0,4.0,93,0.00,,,0.19,,2013-09-20 15:54:00,
2013-09-20 12:13:00,66.0,64.0,-100.00,NE,35,2.0,4.0,92,0.00,,,0.19,,2013-09-20 16:13:00,
2013-09-20 12:23:00,68.0,64.0,-100.00,NE,55,2.0,6.0,89,0.00,,,0.19,,2013-09-20 16:23:00,
2013-09-20 12:53:00,68.0,65.0,-100.00,ENE,58,2.0,5.0,88,0.00,,,0.19,,2013-09-20 16:53:00,
2013-09-20 13:13:00,70.0,65.0,-100.00,ENE,78,2.0,5.0,86,0.00,,,0.19,,2013-09-20 17:13:00,
2013-09-20 13:24:00,71.0,65.0,-100.00,ENE,59,2.0,5.0,81,0.00,,,0.19,,2013-09-20 17:24:00,
2013-09-20 13:34:00,71.0,65.0,-100.00,ENE,59,2.0,5.0,81,0.00,,,0.19,,2013-09-20 17:34:00,
2013-09-20 13:53:00,72.0,65.0,-100.00,SW,229,2.0,4.0,78,0.00,,,0.19,,2013-09-20 17:53:00,
2013-09-20 14:12:00,71.0,65.0,-100.00,NNW,339,2.0,4.0,83,0.01,,,0.20,,2013-09-20 18:12:00,
2013-09-20 14:22:00,71.0,64.0,-100.00,SSE,165,1.0,3.0,78,0.00,,,0.20,,2013-09-20 18:22:00,
2013-09-20 14:32:00,71.0,64.0,-100.00,SSE,165,1.0,3.0,78,0.00,,,0.20,,2013-09-20 18:32:00,
2013-09-20 14:42:00,71.0,64.0,-100.00,SSE,165,1.0,3.0,78,0.00,,,0.20,,2013-09-20 18:42:00,
2013-09-20 14:52:00,72.0,65.0,-100.00,SE,127,1.0,4.0,77,0.00,,,0.20,,2013-09-20 18:52:00,
2013-09-20 15:12:00,73.0,65.0,-100.00,NW,326,2.0,7.0,76,0.00,,,0.20,,2013-09-20 19:12:00,
2013-09-20 15:22:00,74.0,65.0,-100.00,ENE,78,2.0,5.0,73,0.00,,,0.20,,2013-09-20 19:22:00,
2013-09-20 15:32:00,74.0,65.0,-100.00,ENE,78,2.0,5.0,73,0.00,,,0.20,,2013-09-20 19:32:00,
2013-09-20 15:52:00,74.0,65.0,-100.00,ESE,104,2.0,6.0,76,0.00,,,0.20,,2013-09-20 19:52:00,
2013-09-20 16:12:00,73.0,66.0,-100.00,NE,56,2.0,6.0,78,0.00,,,0.20,,2013-09-20 20:12:00,
2013-09-20 16:22:00,74.0,65.0,-100.00,ESE,106,2.0,4.0,73,0.00,,,0.20,,2013-09-20 20:22:00,
2013-09-20 16:32:00,74.0,65.0,-100.00,ESE,106,2.0,4.0,73,0.00,,,0.20,,2013-09-20 20:32:00,
2013-09-20 16:52:00,74.0,66.0,-100.00,ENE,71,2.0,5.0,76,0.00,,,0.20,,2013-09-20 20:52:00,
2013-09-20 17:12:00,74.0,66.0,-100.00,SE,124,3.0,6.0,76,0.00,,,0.20,,2013-09-20 21:12:00,
2013-09-20 17:22:00,72.0,64.0,-100.00,South,175,3.0,8.0,77,0.00,,,0.20,,2013-09-20 21:22:00,
2013-09-20 17:34:00,72.0,64.0,-100.00,South,175,3.0,8.0,77,0.00,,,0.20,,2013-09-20 21:34:00,
2013-09-20 17:54:00,72.0,65.0,-100.00,ENE,76,3.0,7.0,78,0.00,,,0.20,,2013-09-20 21:54:00,
2013-09-20 18:14:00,72.0,65.0,-100.00,ENE,78,2.0,6.0,77,0.00,,,0.20,,2013-09-20 22:14:00,
2013-09-20 18:24:00,72.0,65.0,-100.00,ENE,59,3.0,7.0,77,0.00,,,0.20,,2013-09-20 22:24:00,
2013-09-20 18:33:00,72.0,65.0,-100.00,ENE,59,3.0,7.0,77,0.00,,,0.20,,2013-09-20 22:33:00,
2013-09-20 18:53:00,72.0,65.0,-100.00,NE,55,3.0,6.0,77,0.00,,,0.20,,2013-09-20 22:53:00,
2013-09-20 19:13:00,72.0,64.0,-100.00,East,86,2.0,6.0,77,0.00,,,0.20,,2013-09-20 23:13:00,
2013-09-20 19:23:00,71.0,64.0,-100.00,SW,215,2.0,4.0,80,0.00,,,0.20,,2013-09-20 23:23:00,
2013-09-20 19:34:00,71.0,64.0,-100.00,SW,215,2.0,4.0,80,0.00,,,0.20,,2013-09-20 23:34:00,
2013-09-20 19:53:00,70.0,64.0,-100.00,SSW,205,2.0,4.0,82,0.00,,,0.20,,2013-09-20 23:53:00,
2013-09-20 20:11:00,70.0,64.0,-100.00,NNW,346,1.0,6.0,83,0.00,,,0.20,,2013-09-21 00:11:00,
2013-09-20 20:22:00,69.0,64.0,-100.00,WSW,256,0.0,2.0,86,0.00,,,0.20,,2013-09-21 00:22:00,
2013-09-20 20:33:00,69.0,64.0,-100.00,WSW,256,0.0,2.0,86,0.00,,,0.20,,2013-09-21 00:33:00,
2013-09-20 20:50:00,68.0,64.0,-100.00,West,272,0.0,1.0,87,0.00,,,0.20,,2013-09-21 00:50:00,
2013-09-20 20:52:00,69.0,64.0,-100.00,NW,320,1.0,4.0,85,0.00,,,0.20,,2013-09-21 00:52:00,
2013-09-20 21:12:00,69.0,64.0,-100.00,West,265,1.0,3.0,85,0.00,,,0.20,,2013-09-21 01:12:00,
2013-09-20 21:22:00,68.0,64.0,-100.00,West,272,0.0,1.0,87,0.00,,,0.20,,2013-09-21 01:22:00,
2013-09-20 21:30:00,67.0,64.0,-100.00,WSW,243,1.0,3.0,89,0.00,,,0.20,,2013-09-21 01:30:00,
2013-09-20 21:32:00,68.0,64.0,-100.00,West,272,0.0,1.0,87,0.00,,,0.20,,2013-09-21 01:32:00,
2013-09-20 21:42:00,68.0,64.0,-100.00,West,272,0.0,1.0,87,0.00,,,0.20,,2013-09-21 01:42:00,
2013-09-20 22:12:00,67.0,64.0,-100.00,WSW,243,1.0,3.0,89,0.00,,,0.20,,2013-09-21 02:12:00,
2013-09-20 22:22:00,67.0,64.0,-100.00,WSW,243,1.0,3.0,89,0.00,,,0.20,,2013-09-21 02:22:00,
2013-09-20 22:52:00,67.0,64.0,-100.00,WNW,295,1.0,3.0,89,0.00,,,0.20,,2013-09-21 02:52:00,
2013-09-20 23:12:00,67.0,64.0,-100.00,WNW,301,1.0,3.0,90,0.00,,,0.20,,2013-09-21 03:12:00,
2013-09-20 23:22:00,67.0,64.0,-100.00,WNW,288,1.0,3.0,91,0.00,,,0.20,,2013-09-21 03:22:00,
2013-09-20 23:34:00,67.0,64.0,-100.00,WNW,288,1.0,3.0,91,0.00,,,0.20,,2013-09-21 03:34:00,
2013-09-20 23:54:00,66.0,63.0,-100.00,WSW,253,1.0,3.0,92,0.00,,,0.20,,2013-09-21 03:54:00,